[[{"header":{"parameterUnit":"m.s-1","parameterCategory":1,"la1":30.2991,"la2":30.254,"lo1":-89.0895,"lo2":-89.0444,"dx":0.0017,"dy":0.0017,"nx":28,"ny":28,"refTime":"2023-01-27T15:00:00:Z","depth":0,"parameterNumber":2,"parameterNumberName":"U-component_of_WINDS"},"data":[0,0,0,0,0,0,0,0,0,0,0,0,0,0,0,0,0,0,0,0,0,0,0,0,0,0,0,0,0,0,0,0,0,0,0,0,0,0,0,0,0,0,0,0,0,0,0,0,0,0,0,0,0,0,0,0,0,0,-4.5459,-4.546,0,-4.5566,-4.5567,-4.5568,-4.5566,-4.5565,-4.5563,-4.5562,-4.5669,-4.5673,-4.5677,0,0,0,0,0,0,0,0,0,0,0,0,0,-4.5251,-4.5255,-4.5459,-4.546,-4.5462,-4.5566,-4.5567,-4.5569,-4.5566,-4.5564,-4.5563,-4.5561,-4.5668,-4.5673,-4.5678,0,0,0,0,0,0,0,0,0,0,0,0,0,-4.5348,-4.5256,-4.5459,-4.5473,-4.5475,-4.5566,-4.5567,-4.5569,-4.5567,-4.5564,-4.5562,-4.556,-4.5666,-4.5672,-4.5678,-4.5761,0,0,-4.5698,-4.57,0,0,0,0,0,0,0,0,-4.5343,-4.5356,-4.547,-4.5472,-4.5475,-4.5551,-4.5533,-4.5633,-4.5567,-4.5532,-4.5562,-4.5559,-4.5631,-4.564,-4.5665,-4.5766,-4.577,-4.5698,-4.5702,-4.5705,-4.5706,0,0,0,0,0,0,0,-4.5336,-4.5351,-4.5501,-4.5471,-4.5475,-4.5474,-4.5485,-4.5552,-4.5592,-4.5535,-4.5535,-4.5548,-4.5632,-4.5659,-4.5667,-4.5772,-4.5698,-4.5704,-4.5707,-4.571,-4.5946,-4.5948,0,0,0,0,0,0,-4.5327,-4.5346,-4.5498,-4.5504,-4.5402,-4.5479,-4.5492,-4.5528,-4.5592,-4.5599,-4.5549,-4.5547,-4.5649,-4.566,-4.5671,-4.5771,-4.5705,-4.571,-4.5714,-4.5943,-4.5946,-4.5949,0,0,0,0,0,0,-4.5322,-4.534,-4.5494,-4.5425,-4.5445,-4.5485,-4.5526,-4.5532,-4.5558,-4.5603,-4.561,-4.5569,-4.5648,-4.5662,-4.5739,-4.5775,-4.5713,-4.5719,-4.5941,-4.5944,-4.5948,-4.5972,0,0,0,0,0,0,-4.5316,-4.5339,-4.537,-4.5426,-4.5448,-4.5559,-4.5528,-4.5535,-4.5569,-4.5567,-4.5623,-4.563,-4.5647,-4.5729,-4.5745,-4.5782,-4.5724,-4.5937,-4.5942,-4.5947,-4.5968,-4.5976,-4.5983,0,0,0,0,0,-4.5309,-4.5372,-4.5372,-4.539,-4.5489,-4.5561,-4.5574,-4.5593,-4.5572,-4.5604,-4.5633,-4.5629,-4.5769,-4.5737,-4.5755,-4.5795,-4.5935,-4.5941,-4.5946,-4.5965,-4.5974,-4.5983,0,0,0,0,0,0,-4.5318,-4.538,-4.538,-4.5463,-4.5508,-4.5561,-4.5601,-4.5603,-4.5653,-4.5649,-4.567,-4.5682,-4.5758,-4.5785,-4.5748,-4.5878,-4.5849,-4.5859,-4.5857,-4.5867,-4.5874,-4.5865,-4.5729,0,0,0,0,0,-4.5331,-4.5385,-4.5435,-4.5504,-4.5527,-4.5561,-4.5593,-4.5604,-4.565,-4.5668,-4.5702,-4.5747,-4.5801,-4.5836,-4.5888,-4.5973,-4.5985,-4.6009,-4.6017,-4.6023,-4.603,-4.6076,-4.6087,-4.5968,-4.5968,-4.5967,0,0,-4.5355,-4.5396,-4.5428,-4.5507,-4.5542,-4.5598,-4.5576,-4.5635,-4.5676,-4.5677,-4.5751,-4.5778,-4.5829,-4.591,-4.5947,-4.5934,-4.6066,-4.603,-4.6034,-4.6038,-4.6083,-4.6094,-4.6104,-4.5971,-4.5971,-4.597,0,0,-4.5428,-4.5465,-4.5526,-4.5563,-4.5617,-4.564,-4.5655,-4.5709,-4.5727,-4.5802,-4.5804,-4.5853,-4.5946,-4.5982,-4.6013,-4.6103,-4.61,-4.612,-4.6157,-4.6202,-4.6211,-4.622,-4.625,-4.6261,-4.6127,-4.6127,-4.6127,0,-4.5452,-4.5535,-4.5557,-4.5617,-4.5651,-4.5657,-4.5718,-4.5753,-4.5821,-4.5845,-4.583,-4.5947,-4.5982,-4.6071,-4.6093,-4.6118,-4.6135,-4.6111,-4.6209,-4.6217,-4.6225,-4.6255,-4.6266,-4.6129,-4.6129,-4.6128,-4.6128,0,-4.5561,-4.562,-4.5663,-4.5729,-4.5769,-4.583,-4.586,-4.5898,-4.5907,-4.5931,-4.6007,-4.605,-4.6111,-4.6134,-4.6142,-4.6225,-4.6215,-4.6204,-4.6175,-4.6238,-4.6266,-4.6278,-4.6132,-4.6131,-4.613,-4.613,0,0,-4.564,-4.572,-4.5735,-4.5766,-4.5827,-4.5873,-4.5934,-4.5995,-4.6026,-4.6074,-4.6125,-4.6205,-4.6197,-4.6231,-4.6245,-4.6285,-4.6352,-4.6269,-4.6271,-4.6281,-4.6444,-4.6449,-4.6462,-4.6352,-4.6354,-4.6356,-4.6439,0,-4.5718,-4.5827,-4.5849,-4.5943,-4.5997,-4.6004,-4.6058,-4.6101,-4.6126,-4.6175,-4.6203,-4.6259,-4.6244,-4.6265,-4.6305,-4.6335,-4.6384,-4.633,-4.6398,-4.64,-4.6382,-4.6477,-4.6483,-4.6559,-4.645,-4.6452,-4.6453,0,-4.5822,-4.5874,-4.5973,-4.6029,-4.6052,-4.61,-4.6157,-4.6205,-4.6255,-4.6271,-4.6311,-4.632,-4.6384,-4.6355,-4.6443,-4.6405,-4.6435,-4.6455,-4.6458,-4.6462,-4.6428,-4.6482,-4.6584,-4.6594,-4.6471,-4.647,-4.6468,0,-4.5867,-4.5962,-4.6033,-4.606,-4.6127,-4.616,-4.6189,-4.6237,-4.6273,-4.6324,-4.6347,-4.6405,-4.6436,-4.648,-4.6505,-4.6482,-4.6591,-4.6564,-4.6604,-4.6603,-4.6624,-4.6622,-4.6729,-4.6648,-4.6647,-4.6647,-4.6647,0,-4.595,-4.601,-4.6055,-4.6098,-4.6166,-4.6192,-4.6259,-4.6288,-4.6331,-4.638,-4.6391,-4.6437,-4.6468,-4.6519,-4.6539,-4.6608,-4.6623,-4.6636,-4.664,-4.6634,-4.6632,-4.6651,-4.6645,-4.665,-4.665,-4.6649,-4.6649,0,-4.601,-4.6043,-4.6121,-4.6179,-4.6195,-4.6242,-4.6291,-4.6334,-4.6361,-4.6424,-4.644,-4.6481,-4.6541,-4.6571,-4.6646,-4.666,-4.6737,-4.6739,-4.672,-4.6721,-4.6759,-4.6754,-4.6881,-4.6898,-4.6807,-4.6808,-4.6809,0,-4.6059,-4.6106,-4.6169,-4.6204,-4.6234,-4.6289,-4.6326,-4.6354,-4.6392,-4.6454,-4.6489,-4.655,-4.66,-4.6696,-4.6733,-4.679,-4.6792,-4.6833,-4.68,-4.6793,-4.679,-4.6786,-4.679,-4.6837,-4.6838,-4.6839,-4.6839,0,-4.6143,-4.6157,-4.621,-4.6269,-4.6313,-4.636,-4.6407,-4.6435,-4.6471,-4.6513,-4.6575,-4.6614,-4.6691,-4.6751,-4.6812,-4.6842,-4.6846,-4.685,-4.6862,-4.6854,-4.684,-4.6846,-4.6733,-4.6846,-4.6845,-4.6845,-4.6845,-4.6844,-4.6198,-4.6239,-4.6291,-4.6349,-4.6388,-4.6432,-4.6475,-4.6508,-4.6561,-4.6626,-4.664,-4.6706,-4.6756,-4.6838,-4.6871,-4.6922,-4.6913,-4.6931,-4.6935,-4.6938,-4.6939,-4.6835,-4.6934,-4.6934,-4.6933,-4.6933,-4.6933,0,-4.628,-4.6314,-4.6368,-4.6434,-4.648,-4.6483,-4.6535,-4.6573,-4.6631,-4.6678,-4.6728,-4.68,-4.6859,-4.6901,-4.6961,-4.6995,-4.6998,-4.7009,-4.7006,-4.7012,-4.6945,-4.6927,-4.7005,-4.7005,-4.7005,-4.7005,-4.7005,-4.7005,-4.6328,-4.6398,-4.6419,-4.6509,-4.6543,-4.6608,-4.6638,-4.6678,-4.6716,-4.6796,-4.6845,-4.6873,-4.6918,-4.6982,-4.7037,-4.7048,-4.7068,-4.7079,-4.709,-4.7025,-4.7017,-4.701,-4.6993,-4.7084,-4.7084,-4.7153,-4.7153,-4.7154]},{"header":{"parameterUnit":"m.s-1","parameterCategory":1,"la1":30.2991,"la2":30.254,"lo1":-89.0895,"lo2":-89.0444,"dx":0.0017,"dy":0.0017,"nx":28,"ny":28,"refTime":"2023-01-27T15:00:00:Z","depth":0,"parameterNumber":3,"parameterNumberName":"V-component_of_WINDS"},"data":[0,0,0,0,0,0,0,0,0,0,0,0,0,0,0,0,0,0,0,0,0,0,0,0,0,0,0,0,0,0,0,0,0,0,0,0,0,0,0,0,0,0,0,0,0,0,0,0,0,0,0,0,0,0,0,0,0,0,2.7222,2.7223,0,2.7302,2.7303,2.7304,2.7319,2.7319,2.7318,2.7317,2.7398,2.74,2.7403,0,0,0,0,0,0,0,0,0,0,0,0,0,2.7084,2.7086,2.7222,2.7223,2.7224,2.7302,2.7303,2.7304,2.7319,2.7319,2.7318,2.7317,2.7397,2.74,2.7403,0,0,0,0,0,0,0,0,0,0,0,0,0,2.7152,2.7087,2.7222,2.7241,2.7244,2.7302,2.7303,2.7304,2.732,2.7319,2.7318,2.7317,2.7396,2.74,2.7404,2.7448,0,0,2.7416,2.7418,0,0,0,0,0,0,0,0,2.7148,2.7157,2.7237,2.724,2.7243,2.73,2.7284,2.7352,2.732,2.7291,2.7317,2.7316,2.7366,2.7372,2.7389,2.7451,2.7455,2.7417,2.7419,2.7421,2.7422,0,0,0,0,0,0,0,2.7143,2.7153,2.7254,2.7238,2.7242,2.7246,2.7255,2.7297,2.7332,2.7293,2.7294,2.7304,2.7367,2.7385,2.7391,2.7456,2.7416,2.742,2.7423,2.7424,2.7562,2.7563,0,0,0,0,0,0,2.7135,2.7149,2.7251,2.7256,2.7192,2.7249,2.7259,2.7282,2.7332,2.7339,2.7304,2.7304,2.7379,2.7386,2.7394,2.7452,2.7421,2.7425,2.7427,2.7561,2.7563,2.7564,0,0,0,0,0,0,2.7132,2.7144,2.7248,2.7203,2.7217,2.7253,2.7279,2.7284,2.7303,2.7341,2.7347,2.7316,2.7378,2.7388,2.7435,2.7454,2.7426,2.743,2.756,2.7562,2.7563,2.7565,0,0,0,0,0,0,2.7128,2.7143,2.7159,2.7203,2.7219,2.7287,2.728,2.7287,2.731,2.731,2.7354,2.736,2.7378,2.7429,2.7439,2.7459,2.7433,2.7558,2.7561,2.7563,2.7563,2.7566,2.7569,0,0,0,0,0,2.7123,2.7155,2.716,2.7172,2.7241,2.7288,2.7297,2.7318,2.7311,2.7329,2.7354,2.7358,2.7451,2.7434,2.7445,2.7467,2.7557,2.756,2.7563,2.7562,2.7566,2.7569,0,0,0,0,0,0,2.7111,2.7161,2.7167,2.7215,2.7247,2.7291,2.7313,2.7321,2.7356,2.7355,2.7379,2.7389,2.7435,2.7455,2.7436,2.7514,2.7503,2.7509,2.7499,2.7503,2.7506,2.75,2.7437,0,0,0,0,0,2.7114,2.7149,2.7191,2.7229,2.7245,2.7277,2.7298,2.7312,2.7346,2.736,2.7388,2.7421,2.7458,2.7482,2.7517,2.7566,2.7577,2.7587,2.759,2.7593,2.7597,2.7628,2.7633,2.7573,2.7573,2.7573,0,0,2.7121,2.7153,2.7172,2.7228,2.7254,2.7291,2.7288,2.7325,2.7353,2.7365,2.7412,2.7434,2.7473,2.7522,2.7545,2.7541,2.7616,2.7596,2.7598,2.7601,2.7631,2.7637,2.7642,2.7575,2.7574,2.7574,0,0,2.7151,2.7178,2.7214,2.7242,2.7284,2.7305,2.7313,2.7357,2.7372,2.742,2.7431,2.7464,2.7526,2.7554,2.7577,2.7622,2.7629,2.7633,2.7649,2.7678,2.7683,2.7687,2.7706,2.7712,2.7637,2.7637,2.7637,0,2.7154,2.7209,2.7232,2.727,2.7295,2.731,2.7348,2.7373,2.7424,2.7441,2.7435,2.7516,2.7543,2.76,2.7612,2.7629,2.7641,2.7628,2.7681,2.7685,2.769,2.7707,2.7714,2.7637,2.7637,2.7637,2.7637,0,2.7211,2.725,2.7274,2.7324,2.7352,2.7389,2.7419,2.7444,2.7456,2.7479,2.7528,2.7562,2.7606,2.762,2.7631,2.768,2.7677,2.7676,2.7666,2.7695,2.7713,2.7719,2.7638,2.7638,2.7638,2.7638,0,0,2.7235,2.73,2.7309,2.7334,2.7382,2.7412,2.7451,2.7496,2.7518,2.7553,2.7588,2.7642,2.7642,2.7668,2.7682,2.7708,2.7745,2.7704,2.7706,2.7712,2.7804,2.7806,2.7813,2.775,2.7751,2.7752,2.7801,0,2.7273,2.7344,2.7368,2.7427,2.7464,2.748,2.7515,2.7549,2.7571,2.7606,2.7631,2.767,2.7666,2.7682,2.7708,2.7735,2.7764,2.7732,2.7783,2.7785,2.7774,2.7822,2.7823,2.7867,2.7808,2.7809,2.781,0,2.7326,2.7364,2.7428,2.7475,2.7491,2.7522,2.7566,2.7599,2.7639,2.7654,2.7684,2.7698,2.7741,2.7728,2.7789,2.7767,2.7789,2.7806,2.7808,2.7815,2.78,2.7831,2.7882,2.7889,2.782,2.782,2.7819,0,2.734,2.7407,2.7455,2.7475,2.753,2.7552,2.7576,2.7614,2.7641,2.768,2.7697,2.774,2.7764,2.7797,2.7823,2.7811,2.7882,2.7871,2.7897,2.7896,2.7911,2.791,2.7968,2.7924,2.7923,2.7923,2.7923,0,2.738,2.7419,2.7462,2.7491,2.7536,2.7563,2.7607,2.7632,2.7667,2.7702,2.7718,2.7751,2.7782,2.7819,2.784,2.7889,2.7898,2.7912,2.7918,2.7912,2.791,2.7928,2.7926,2.7925,2.7925,2.7924,2.7924,0,2.7403,2.7433,2.7487,2.7536,2.7549,2.758,2.7622,2.7652,2.7676,2.7721,2.7733,2.7771,2.7816,2.7845,2.7901,2.7915,2.7969,2.7973,2.7956,2.7959,2.7984,2.7982,2.8056,2.8068,2.8014,2.8015,2.8015,0,2.7428,2.7458,2.7511,2.7537,2.7562,2.7602,2.763,2.7658,2.7686,2.7736,2.776,2.7807,2.7845,2.7917,2.795,2.7994,2.8,2.8023,2.8006,2.8001,2.8003,2.8001,2.8005,2.8026,2.8026,2.8026,2.8027,0,2.7469,2.7483,2.7522,2.7568,2.7602,2.7639,2.7676,2.7696,2.7731,2.7762,2.7809,2.784,2.7899,2.7946,2.7994,2.8019,2.803,2.8032,2.8041,2.8035,2.8026,2.8034,2.7965,2.803,2.803,2.8029,2.8029,2.8029,2.7494,2.7524,2.7567,2.7611,2.7643,2.7678,2.7709,2.7738,2.7778,2.783,2.7844,2.7894,2.7936,2.8002,2.8028,2.8068,2.8066,2.8077,2.8081,2.8084,2.8085,2.8019,2.8077,2.8077,2.8077,2.8077,2.8077,0,2.7538,2.7567,2.7608,2.7661,2.7696,2.7704,2.7746,2.7776,2.782,2.7858,2.7897,2.7953,2.7999,2.8036,2.8084,2.8109,2.8116,2.8121,2.812,2.8126,2.8084,2.8073,2.8116,2.8116,2.8115,2.8115,2.8115,2.8115,2.7565,2.7616,2.7636,2.7703,2.7732,2.7782,2.7806,2.7839,2.7871,2.7932,2.7972,2.7996,2.8035,2.8086,2.813,2.814,2.8157,2.8162,2.8173,2.8133,2.8129,2.8125,2.8114,2.8165,2.8165,2.8213,2.8213,2.8213]}]]